(°C)
-3°
-2°
-2°
-2°
-1°
-1°
-1°
(°C)
-9°
-8°
-8°
-8°
-7°
-7°
-7°
WSW
WSW
WSW
WSW
WSW
WSW
WSW
(km/h)
17-28
17-29
17-29
17-29
17-28
17-26
15-25
(mm)
0
0
0
0
0
0
0
(%)
6
0
0
0
0
0
0

Elevazione del sole

/ -54.7°
sun-icon
UV 0
08:45
16:46
(3°)
08:56
16:36

METAR per 52.53°N 31.02°E (UMGG)

Ora Condizioni Temperatura/
Punto di rugiada
Vento Visibilità Tempo Nuvole Pressione Cambiamento Grezzo
VFR -3°C / -4°C 230º 12kt >10km - Clouds and Visibility OK 1007 No Significant change UMGG 032300Z 23006MPS CAVOK M03/M04 Q1007 NOSIG
VFR -2°C / -3°C 230º 12kt >10km - Clouds and Visibility OK 1007 No Significant change UMGG 032200Z 23006MPS CAVOK M02/M03 Q1007 NOSIG
VFR -3°C / -4°C 220º 12kt >10km - Clouds and Visibility OK 1006 No Significant change UMGG 032100Z 22006MPS CAVOK M03/M04 Q1006 NOSIG
VFR -3°C / -4°C 220º 10kt >10km - Clouds and Visibility OK 1006 No Significant change UMGG 032000Z 22005MPS CAVOK M03/M04 Q1006 NOSIG
VFR -3°C / -4°C 230º 10kt >10km - Clouds and Visibility OK 1006 No Significant change UMGG 031900Z 23005MPS CAVOK M03/M04 Q1006 NOSIG
VFR -2°C / -3°C 240º 10kt >10km - Clouds and Visibility OK 1005 No Significant change UMGG 031800Z 24005MPS CAVOK M02/M03 Q1005 NOSIG
VFR -1°C / -1°C 250º 10kt >10km - Clouds and Visibility OK 1004 No Significant change UMGG 031700Z 25005MPS CAVOK M01/M01 Q1004 NOSIG
VFR 0°C / -1°C 240º 10kt >10km - Clouds and Visibility OK 1004 No Significant change UMGG 031630Z 24005MPS CAVOK M00/M01 Q1004 NOSIG
VFR 0°C / -1°C 240º 10kt >10km - Clouds and Visibility OK 1004 No Significant change UMGG 031600Z 24005MPS CAVOK M00/M01 Q1004 NOSIG
VFR 0°C / -1°C 240º 10kt >10km - Clouds and Visibility OK 1003 No Significant change UMGG 031530Z 24005MPS CAVOK M00/M01 Q1003 NOSIG
MVFR 0°C / -1°C 250º 10kt 8000m - Clear 1003 No Significant change UMGG 031500Z 25005MPS 8000 NSC M00/M01 Q1003 NOSIG
MVFR 0°C / -2°C 250º 8kt 8000m - Scattered Clouds 6000ft
Broken Clouds 10000ft
1003 No Significant change UMGG 031430Z 25004MPS 8000 SCT060CB BKN100 M00/M02 Q1003 NOSIG
VFR 0°C / -2°C 240º 8kt 9000m - Scattered Clouds 5300ft
Overcast 10000ft
1002 No Significant change UMGG 031400Z 24004MPS 9000 SCT053CB OVC100 M00/M02 Q1002 NOSIG
MVFR 0°C / -1°C 240º 8kt 8000m - Scattered Clouds 5100ft
Overcast 10000ft
1002 No Significant change UMGG 031330Z 24004MPS 8000 SCT051CB OVC100 00/M01 Q1002 NOSIG
MVFR 0°C / -1°C 240º 6kt 8000m Light Showers Snow 3.00mm precipitation Vertical Visibility of 0ft.
Overcast 10000ft
1002 No Significant change UMGG 031300Z 24003MPS 8000 -SHSN BKN021CB OVC100 00/M01 Q1002 NOSIG
IFR 0°C / 0°C 250º 8kt 6000m Light Showers Snow 3.00mm precipitation Vertical Visibility of 0ft.
Overcast 1700ft
1001 Temporary: Visibility 2000. Showers Snow . UMGG 031230Z 25004MPS 6000 -SHSN BKN007 OVC017CB 00/M00 Q1001 TEMPO 2000 SHSN
LIFR 0°C / 0°C 250º 8kt 2900m Light Showers Snow 3.00mm precipitation Vertical Visibility of 0ft.
Overcast 1500ft
1001 Temporary: Visibility 2000. Showers Snow . RMK QBB120 UMGG 031200Z 25004MPS 2900 -SHSN BKN004 OVC015CB 00/M00 Q1001 RESHSNRA TEMPO 2000 SHSN RMK QBB120
LIFR 0°C / 0°C 250º 8kt 1800m Showers Snow Showers Rain 3.00mm precipitation Vertical Visibility of 0ft. 1001 No Significant change UMGG 031130Z 25004MPS 1800 SHSNRA OVC004CB 00/00 Q1001 NOSIG RMK QBB120
LIFR 0°C / 0°C 270º 8kt 1400m Showers Snow Showers Rain 3.00mm precipitation Vertical Visibility of 0ft. 1001 Temporary: Visibility 0900. Heavy Showers Snow Rain . RMK QBB120 UMGG 031110Z 27004MPS 1400 SHSNRA OVC004CB 00/00 Q1001 RESHSNRA TEMPO 0900 +SHSNRA RMK QBB120
MVFR 1°C / 1°C 200º 6kt 8000m - Scattered Clouds 5300ft
Broken Clouds 10000ft
1000 No Significant change UMGG 030530Z 20003MPS 8000 SCT053CB BKN100 01/01 Q1000 NOSIG
MVFR 1°C / 1°C 190º 8kt 5000m Mist Vertical Visibility of 0ft.
Broken Clouds 10000ft
1000 No Significant change UMGG 030500Z 19004MPS 5000 BR SCT053CB BKN100 01/01 Q1000 NOSIG
MVFR 1°C / 1°C 170º 6kt 5000m Mist Vertical Visibility of 0ft. 1000 No Significant change UMGG 030430Z 17003MPS 5000 BR NSC 01/01 Q1000 NOSIG
MVFR 1°C / 1°C 200º 4kt 5000m Mist Vertical Visibility of 0ft. 1000 No Significant change UMGG 030400Z 20002MPS 5000 BR NSC 01/01 Q1000 NOSIG
MVFR 1°C / 0°C 190º 4kt 5000m Mist Vertical Visibility of 0ft. 1000 No Significant change UMGG 030330Z 19002MPS 5000 BR NSC 01/00 Q1000 NOSIG

VFR

-3°C / -4°C

[Più]
Vento 230º 12kt
Visibilità >10km
Tempo -
Nuvole Clouds and Visibility OK
Pressione 1007
Cambiamento No Significant change
Grezzo UMGG 032300Z 23006MPS CAVOK M03/M04 Q1007 NOSIG

VFR

-2°C / -3°C

[Più]
Vento 230º 12kt
Visibilità >10km
Tempo -
Nuvole Clouds and Visibility OK
Pressione 1007
Cambiamento No Significant change
Grezzo UMGG 032200Z 23006MPS CAVOK M02/M03 Q1007 NOSIG

VFR

-3°C / -4°C

[Più]
Vento 220º 12kt
Visibilità >10km
Tempo -
Nuvole Clouds and Visibility OK
Pressione 1006
Cambiamento No Significant change
Grezzo UMGG 032100Z 22006MPS CAVOK M03/M04 Q1006 NOSIG

VFR

-3°C / -4°C

[Più]
Vento 220º 10kt
Visibilità >10km
Tempo -
Nuvole Clouds and Visibility OK
Pressione 1006
Cambiamento No Significant change
Grezzo UMGG 032000Z 22005MPS CAVOK M03/M04 Q1006 NOSIG

VFR

-3°C / -4°C

[Più]
Vento 230º 10kt
Visibilità >10km
Tempo -
Nuvole Clouds and Visibility OK
Pressione 1006
Cambiamento No Significant change
Grezzo UMGG 031900Z 23005MPS CAVOK M03/M04 Q1006 NOSIG

VFR

-2°C / -3°C

[Più]
Vento 240º 10kt
Visibilità >10km
Tempo -
Nuvole Clouds and Visibility OK
Pressione 1005
Cambiamento No Significant change
Grezzo UMGG 031800Z 24005MPS CAVOK M02/M03 Q1005 NOSIG

VFR

-1°C / -1°C

[Più]
Vento 250º 10kt
Visibilità >10km
Tempo -
Nuvole Clouds and Visibility OK
Pressione 1004
Cambiamento No Significant change
Grezzo UMGG 031700Z 25005MPS CAVOK M01/M01 Q1004 NOSIG

VFR

0°C / -1°C

[Più]
Vento 240º 10kt
Visibilità >10km
Tempo -
Nuvole Clouds and Visibility OK
Pressione 1004
Cambiamento No Significant change
Grezzo UMGG 031630Z 24005MPS CAVOK M00/M01 Q1004 NOSIG

VFR

0°C / -1°C

[Più]
Vento 240º 10kt
Visibilità >10km
Tempo -
Nuvole Clouds and Visibility OK
Pressione 1004
Cambiamento No Significant change
Grezzo UMGG 031600Z 24005MPS CAVOK M00/M01 Q1004 NOSIG

VFR

0°C / -1°C

[Più]
Vento 240º 10kt
Visibilità >10km
Tempo -
Nuvole Clouds and Visibility OK
Pressione 1003
Cambiamento No Significant change
Grezzo UMGG 031530Z 24005MPS CAVOK M00/M01 Q1003 NOSIG

MVFR

0°C / -1°C

[Più]
Vento 250º 10kt
Visibilità 8000m
Tempo -
Nuvole Clear
Pressione 1003
Cambiamento No Significant change
Grezzo UMGG 031500Z 25005MPS 8000 NSC M00/M01 Q1003 NOSIG

MVFR

0°C / -2°C

[Più]
Vento 250º 8kt
Visibilità 8000m
Tempo -
Nuvole Scattered Clouds 6000ft
Broken Clouds 10000ft
Pressione 1003
Cambiamento No Significant change
Grezzo UMGG 031430Z 25004MPS 8000 SCT060CB BKN100 M00/M02 Q1003 NOSIG

VFR

0°C / -2°C

[Più]
Vento 240º 8kt
Visibilità 9000m
Tempo -
Nuvole Scattered Clouds 5300ft
Overcast 10000ft
Pressione 1002
Cambiamento No Significant change
Grezzo UMGG 031400Z 24004MPS 9000 SCT053CB OVC100 M00/M02 Q1002 NOSIG

MVFR

0°C / -1°C

[Più]
Vento 240º 8kt
Visibilità 8000m
Tempo -
Nuvole Scattered Clouds 5100ft
Overcast 10000ft
Pressione 1002
Cambiamento No Significant change
Grezzo UMGG 031330Z 24004MPS 8000 SCT051CB OVC100 00/M01 Q1002 NOSIG

MVFR

0°C / -1°C

[Più]
Vento 240º 6kt
Visibilità 8000m
Tempo Light Showers Snow 3.00mm precipitation
Nuvole Vertical Visibility of 0ft.
Overcast 10000ft
Pressione 1002
Cambiamento No Significant change
Grezzo UMGG 031300Z 24003MPS 8000 -SHSN BKN021CB OVC100 00/M01 Q1002 NOSIG

IFR

0°C / 0°C

[Più]
Vento 250º 8kt
Visibilità 6000m
Tempo Light Showers Snow 3.00mm precipitation
Nuvole Vertical Visibility of 0ft.
Overcast 1700ft
Pressione 1001
Cambiamento Temporary: Visibility 2000. Showers Snow .
Grezzo UMGG 031230Z 25004MPS 6000 -SHSN BKN007 OVC017CB 00/M00 Q1001 TEMPO 2000 SHSN

LIFR

0°C / 0°C

[Più]
Vento 250º 8kt
Visibilità 2900m
Tempo Light Showers Snow 3.00mm precipitation
Nuvole Vertical Visibility of 0ft.
Overcast 1500ft
Pressione 1001
Cambiamento Temporary: Visibility 2000. Showers Snow . RMK QBB120
Grezzo UMGG 031200Z 25004MPS 2900 -SHSN BKN004 OVC015CB 00/M00 Q1001 RESHSNRA TEMPO 2000 SHSN RMK QBB120

LIFR

0°C / 0°C

[Più]
Vento 250º 8kt
Visibilità 1800m
Tempo Showers Snow Showers Rain 3.00mm precipitation
Nuvole Vertical Visibility of 0ft.
Pressione 1001
Cambiamento No Significant change
Grezzo UMGG 031130Z 25004MPS 1800 SHSNRA OVC004CB 00/00 Q1001 NOSIG RMK QBB120

LIFR

0°C / 0°C

[Più]
Vento 270º 8kt
Visibilità 1400m
Tempo Showers Snow Showers Rain 3.00mm precipitation
Nuvole Vertical Visibility of 0ft.
Pressione 1001
Cambiamento Temporary: Visibility 0900. Heavy Showers Snow Rain . RMK QBB120
Grezzo UMGG 031110Z 27004MPS 1400 SHSNRA OVC004CB 00/00 Q1001 RESHSNRA TEMPO 0900 +SHSNRA RMK QBB120

MVFR

1°C / 1°C

[Più]
Vento 200º 6kt
Visibilità 8000m
Tempo -
Nuvole Scattered Clouds 5300ft
Broken Clouds 10000ft
Pressione 1000
Cambiamento No Significant change
Grezzo UMGG 030530Z 20003MPS 8000 SCT053CB BKN100 01/01 Q1000 NOSIG

MVFR

1°C / 1°C

[Più]
Vento 190º 8kt
Visibilità 5000m
Tempo Mist
Nuvole Vertical Visibility of 0ft.
Broken Clouds 10000ft
Pressione 1000
Cambiamento No Significant change
Grezzo UMGG 030500Z 19004MPS 5000 BR SCT053CB BKN100 01/01 Q1000 NOSIG

MVFR

1°C / 1°C

[Più]
Vento 170º 6kt
Visibilità 5000m
Tempo Mist
Nuvole Vertical Visibility of 0ft.
Pressione 1000
Cambiamento No Significant change
Grezzo UMGG 030430Z 17003MPS 5000 BR NSC 01/01 Q1000 NOSIG

MVFR

1°C / 1°C

[Più]
Vento 200º 4kt
Visibilità 5000m
Tempo Mist
Nuvole Vertical Visibility of 0ft.
Pressione 1000
Cambiamento No Significant change
Grezzo UMGG 030400Z 20002MPS 5000 BR NSC 01/01 Q1000 NOSIG

MVFR

1°C / 0°C

[Più]
Vento 190º 4kt
Visibilità 5000m
Tempo Mist
Nuvole Vertical Visibility of 0ft.
Pressione 1000
Cambiamento No Significant change
Grezzo UMGG 030330Z 19002MPS 5000 BR NSC 01/00 Q1000 NOSIG

TAF per 52.53°N 31.02°E (UMGG)

From till


From till Wind 250º 12kt. Gust 21kt. Visibility 6000m. Broken Clouds 1300ft.
Temporarly from till Wind 250º 17kt. Gust 27kt. Visibility 2000m. Showers Snow blowing Snow . Broken Clouds 500ft. Scattered Clouds 2000ft.
Becoming from till Wind 230º 10kt. Gust 19kt. Visibility 6000m. Scattered Clouds 2000ft.

Grezzo: TAF UMGG 031658Z 0318/0418 25006G11MPS 6000 BKN013 TEMPO 0318/0404 25009G14MPS 2000 SHSN BLSN BKN005 SCT020CB BECMG 0404/0406 23005G10MPS SCT020

Radar e nowcasting per 52.53°N 31.02°E

Pioviggine
Lieve
Moderato
Forte
Molto forte
Grandine

Il segnaposto è situato a 52.53°N 31.02°E. Questa animazione mostra il radar delle precipitazioni per l'ultima ora, nonché una previsione 1h. Una pioviggine o una leggera caduta di neve potrebbero essere invisibili per il radar. L'intensità delle precipitazioni è codificata a colori, dal blu chiaro all'arancione.

Tempo in atto per 52.53°N 31.02°E: immagine satellitare e pioggia

Il segnaposto è situato a 52.53°N 31.02°E. [Più]

L'immagine satellitare in tempo reale combina la luce visibile durante il giorno con la radiazione infrarossa durante la notte. Di notte l'immagine non è scura poiché i raggi infrarossi possono rilevare differenze di temperatura. Purtroppo, le nuvole basse e la nebbia sono difficili da distinguere dalla temperatura del suolo e possono pertanto essere quasi invisibili durante la notte. Le immagini satellitari Meteosat per l'Europa vengono aggiornate in tempo reale ogni 5 minuti. Le immagini GOES-16 / GOES-17 (Nord e Sud America) e Himawari (Asia) vengono aggiornate ogni 10 minuti.

Copyright 2021 EUMETSAT / meteoblue. / Copyright 2021 meteoblue